Watonga, OK

8:23 PM CDT on May 26, 2017 (GMT -0500)
Watonga

Weather History for KJWG - May, 2013

Change the Weather History Date:

Wednesday, May 22, 2013

  Actual Average Record
Temperature  
Mean Temperature 65 °F -  
Max Temperature 80 °F 81 °F 96 °F (2005)
Min Temperature 50 °F 58 °F 41 °F (1967)
Growing Degree Days 15 (Base 50)    
Moisture  
Dew Point 56 °F    
Average Humidity 75    
Maximum Humidity 100    
Minimum Humidity 46    
Precipitation  
Precipitation 0.00 in - - ()
Sea Level Pressure  
Sea Level Pressure 29.91 in    
Wind  
Wind Speed - (North)    
Max Wind Speed -    
Max Gust Speed -    
Visibility 10 miles    
Events      
Averages and records for this station are not official NWS values.
T = Trace of Precipitation, MM = Missing Value Source: NWS Daily Summary

Daily Weather History Graph

Daily Weather History Graph

Search for Another Location

Airport or City:

Trip Planner

Search our weather history database for the weather conditions in past years. The results will help you decide how hot, cold, wet, or windy it might be!

Date:

Astronomy

May. 22, 2013 Rise Set
Actual Time 6:23 AM CDT 8:37 PM CDT
Civil Twilight 5:54 AM CDT 9:07 PM CDT
Nautical Twilight 5:18 AM CDT 9:42 PM CDT
Astronomical Twilight 4:40 AM CDT 10:21 PM CDT
Moon 6:06 PM CDT (5/22) 4:22 AM CDT (5/22)
Length of Visible Light 15h 12m
Length of Day
14h 14m
Waxing Gibbous, 91% of the Moon is Illuminated
May 22
Waxing Gibbous
May 24
Full
May 31
Last Quarter
Jun 8
New
Jun 16
First Quarter

Hourly Weather History & Observations

Time (CDT) Temp. Heat Index Dew Point Humidity Pressure Visibility Wind Dir Wind Speed Gust Speed Precip Events Conditions
12:15 AM 59.2 °F - 56.3 °F 90% 29.85 in 10.0 mi North - - N/A   Clear
12:35 AM 59.0 °F - 56.1 °F 90% 29.85 in 10.0 mi North - - N/A   Clear
12:55 AM 59.0 °F - 55.9 °F 90% 29.85 in 10.0 mi North - - N/A   Clear
1:15 AM 58.6 °F - 55.8 °F 90% 29.84 in 10.0 mi North - - N/A   Clear
1:35 AM 58.3 °F - 55.8 °F 91% 29.84 in 10.0 mi North - - N/A   Clear
1:55 AM 57.2 °F - 55.0 °F 92% 29.84 in 10.0 mi North - - N/A   Clear
2:15 AM 54.5 °F - 54.5 °F 100% 29.83 in 10.0 mi North - - N/A   Clear
2:35 AM 56.3 °F - 56.3 °F 100% 29.84 in 10.0 mi North - - N/A   Clear
2:55 AM 57.2 °F - 56.5 °F 97% 29.84 in 10.0 mi North - - N/A   Clear
3:15 AM 56.8 °F - 56.7 °F 99% 29.84 in 10.0 mi North - - N/A   Clear
3:35 AM 55.9 °F - 55.9 °F 100% 29.85 in 10.0 mi North - - N/A   Clear
3:55 AM 56.5 °F - 56.3 °F 99% 29.86 in 10.0 mi North - - N/A   Clear
4:15 AM 56.3 °F - 56.3 °F 100% 29.86 in 10.0 mi North - - N/A   Clear
4:35 AM 55.2 °F - 55.2 °F 100% 29.87 in 10.0 mi North - - N/A   Clear
4:55 AM 53.6 °F - 53.6 °F 100% 29.87 in 10.0 mi North - - N/A   Clear
5:15 AM 53.8 °F - 53.8 °F 100% 29.87 in 10.0 mi North - - N/A   Clear
5:35 AM 52.7 °F - 52.7 °F 100% 29.87 in 10.0 mi North - - N/A   Clear
5:55 AM 51.6 °F - 51.6 °F 100% 29.89 in 10.0 mi North - - N/A   Clear
6:15 AM 51.4 °F - 51.4 °F 100% 29.90 in 10.0 mi North - - N/A   Clear
6:35 AM 53.6 °F - 53.4 °F 99% 29.91 in 10.0 mi North - - N/A   Clear
6:55 AM 50.9 °F - 50.9 °F 100% 29.92 in 10.0 mi North - - N/A   Clear
7:15 AM 51.8 °F - 51.8 °F 100% 29.93 in 10.0 mi North - - N/A   Clear
7:35 AM 52.5 °F - 52.5 °F 100% 29.94 in 10.0 mi North - - N/A   Clear
7:55 AM 55.0 °F - 54.9 °F 99% 29.94 in 10.0 mi North - - N/A   Clear
8:15 AM 56.8 °F - 55.2 °F 94% 29.95 in 10.0 mi North - - N/A   Clear
8:35 AM 58.5 °F - 54.3 °F 86% 29.95 in 10.0 mi North - - N/A   Clear
8:55 AM 61.2 °F - 52.9 °F 74% 29.95 in 10.0 mi North - - N/A   Clear
9:15 AM 62.4 °F - 52.5 °F 70% 29.96 in 10.0 mi North - - N/A   Clear
9:35 AM 63.0 °F - 52.3 °F 68% 29.96 in 10.0 mi North - - N/A   Clear
9:55 AM 63.7 °F - 52.7 °F 67% 29.96 in 10.0 mi North - - N/A   Clear
10:15 AM 64.2 °F - 52.5 °F 66% 29.96 in 10.0 mi North - - N/A   Clear
10:35 AM 65.5 °F - 53.4 °F 65% 29.97 in 10.0 mi North - - N/A   Clear
10:55 AM 66.2 °F - 53.2 °F 63% 29.97 in 10.0 mi North - - N/A   Clear
11:15 AM 67.5 °F - 54.0 °F 62% 29.97 in 10.0 mi North - - N/A   Clear
11:35 AM 68.0 °F - 54.0 °F 61% 29.97 in 10.0 mi North - - N/A   Clear
11:55 AM 68.9 °F - 54.1 °F 59% 29.97 in 10.0 mi North - - N/A   Clear
12:15 PM 69.4 °F - 54.0 °F 58% 29.97 in 10.0 mi North - - N/A   Clear
12:35 PM 71.6 °F - 54.3 °F 54% 29.97 in 10.0 mi North - - N/A   Clear
12:55 PM 71.8 °F - 54.3 °F 54% 29.96 in 10.0 mi North - - N/A   Clear
1:15 PM 72.7 °F - 54.9 °F 53% 29.96 in 10.0 mi North - - N/A   Clear
1:35 PM 73.4 °F - 53.8 °F 50% 29.96 in 10.0 mi North - - N/A   Clear
1:55 PM 73.4 °F - 54.1 °F 51% 29.96 in 10.0 mi North - - N/A   Clear
2:15 PM 74.7 °F - 54.7 °F 50% 29.94 in 10.0 mi North - - N/A   Clear
2:35 PM 75.7 °F - 55.2 °F 49% 29.93 in 10.0 mi North - - N/A   Clear
2:55 PM 75.6 °F - 55.9 °F 50% 29.92 in 10.0 mi North - - N/A   Clear
3:15 PM 76.8 °F - 54.9 °F 46% 29.92 in 10.0 mi North - - N/A   Clear
3:35 PM 76.6 °F - 55.6 °F 48% 29.91 in 10.0 mi North - - N/A   Clear
3:55 PM 77.9 °F - 57.9 °F 50% 29.90 in 10.0 mi North - - N/A   Clear
4:15 PM 78.4 °F - 58.5 °F 50% 29.89 in 10.0 mi North - - N/A   Clear
4:35 PM 78.6 °F - 56.7 °F 47% 29.89 in 10.0 mi North - - N/A   Clear
4:55 PM 79.0 °F - 57.0 °F 47% 29.89 in 10.0 mi North - - N/A   Clear
5:15 PM 79.7 °F - 59.2 °F 49% 29.88 in 10.0 mi North - - N/A   Clear
5:35 PM 79.2 °F - 58.6 °F 49% 29.88 in 10.0 mi North - - N/A   Clear
5:55 PM 80.1 °F 80.9 °F 59.7 °F 50% 29.88 in 10.0 mi North - - N/A   Clear
6:15 PM 79.9 °F - 60.6 °F 52% 29.88 in 10.0 mi North - - N/A   Clear
6:35 PM 80.2 °F 81.2 °F 61.2 °F 52% 29.87 in 10.0 mi North - - N/A   Clear
6:55 PM 78.6 °F - 61.3 °F 55% 29.87 in 10.0 mi North - - N/A   Clear
7:15 PM 77.5 °F - 61.9 °F 58% 29.87 in 10.0 mi North - - N/A   Clear
7:35 PM 76.5 °F - 61.9 °F 61% 29.87 in 10.0 mi North - - N/A   Clear
7:55 PM 75.2 °F - 61.3 °F 62% 29.87 in 10.0 mi North - - N/A   Clear
8:15 PM 73.9 °F - 61.7 °F 65% 29.88 in 10.0 mi North - - N/A   Clear
8:35 PM 71.8 °F - 62.1 °F 71% 29.89 in 10.0 mi North - - N/A   Clear
8:55 PM 69.8 °F - 61.9 °F 76% 29.89 in 10.0 mi North - - N/A   Clear
9:15 PM 67.8 °F - 62.1 °F 82% 29.89 in 10.0 mi North - - N/A   Clear
9:35 PM 67.3 °F - 62.2 °F 84% 29.90 in 10.0 mi North - - N/A   Clear
9:55 PM 66.4 °F - 62.2 °F 86% 29.90 in 10.0 mi North - - N/A   Clear
10:15 PM 66.2 °F - 62.1 °F 86% 29.91 in 10.0 mi North - - N/A   Clear
10:35 PM 67.5 °F - 61.2 °F 80% 29.92 in 10.0 mi North - - N/A   Clear
10:55 PM 66.7 °F - 61.0 °F 82% 29.92 in 10.0 mi North - - N/A   Clear
11:15 PM 66.2 °F - 60.8 °F 83% 29.93 in 10.0 mi North - - N/A   Clear
11:35 PM 65.5 °F - 60.3 °F 83% 29.93 in 10.0 mi North - - N/A   Clear
11:55 PM 64.4 °F - 59.9 °F 85% 29.93 in 10.0 mi North - - N/A   Clear